Simultaneous Nadir Overpasses (SNOs) Predictions

Prediction of SNOs between GOES-17 and METOP-C Satellite Orbit:

Table of predicted SNOs for the next 14.0 days since TLE Epoch: 9/5/2020
Index Date Time (GOES-17) GOES-17 Lat,Lon METOP-C Lat,Lon Distance(km) Time Diff (sec)
1 09/06/2020 18:40:03 -0.04,-137.21 -0.13,-136.86 40.84 80
2 09/08/2020 06:56:23 0.04,-137.22 -0.89,-141.45 482.54 80
3 09/09/2020 06:38:23 0.04,-137.23 0.19,-136.45 88.24 80
4 09/10/2020 18:54:33 -0.04,-137.26 0.81,-141.01 427.37 80
5 09/11/2020 18:36:33 -0.03,-137.27 -0.33,-136.02 142.84 80
6 09/13/2020 06:52:54 0.04,-137.26 -0.69,-140.62 382.17 80
7 09/14/2020 06:34:53 0.03,-137.26 0.39,-135.61 187.54 80
8 09/15/2020 18:51:04 -0.04,-137.28 0.60,-140.17 329.41 80
9 09/16/2020 18:33:03 -0.03,-137.28 -0.48,-135.17 240.00 80
10 09/18/2020 06:52:03 0.03,-137.26 -0.54,-139.77 285.90 80
